| time (UTC) | temp F | wind direction | speed knots | gust knots | rain 1hr in | rain 24hr in | rain mn in | humidity % | barometer mb |
| 20260507205042 | 80 | 25 | 6.1 | 11.3 | 0.00 | 0.00 | 0.00 | 78 | 1017.8 |
| 20260507204539 | 80 | 46 | 6.1 | 11.3 | 0.00 | 0.00 | 0.00 | 78 | 1017.7 |
| 20260507204036 | 80 | 57 | 10.4 | 13.0 | 0.00 | 0.00 | 0.00 | 77 | 1017.5 |
| 20260507203534 | 80 | 54 | 5.2 | 11.3 | 0.00 | 0.00 | 0.00 | 79 | 1017.5 |
| 20260507203031 | 80 | 70 | 10.4 | 14.8 | 0.00 | 0.00 | 0.00 | 79 | 1017.7 |
| 20260507202527 | 80 | 59 | 7.8 | 14.8 | 0.00 | 0.00 | 0.00 | 79 | 1017.6 |
| 20260507202023 | 80 | 44 | 11.3 | 15.6 | 0.00 | 0.00 | 0.00 | 75 | 1017.7 |
| 20260507201519 | 80 | 48 | 5.2 | 9.6 | 0.00 | 0.00 | 0.00 | 76 | 1017.6 |
| 20260507201015 | 81 | 50 | 13.9 | 15.6 | 0.00 | 0.00 | 0.00 | 72 | 1017.7 |
| 20260507200511 | 81 | 64 | 6.1 | 13.9 | 0.00 | 0.00 | 0.00 | 76 | 1017.8 |
| 20260507200007 | 81 | 46 | 9.6 | 11.3 | 0.00 | 0.00 | 0.00 | 75 | 1017.7 |
| 20260507195504 | 80 | 63 | 7.8 | 13.9 | 0.00 | 0.00 | 0.00 | 77 | 1017.7 |
| 20260507195002 | 81 | 39 | 8.7 | 11.3 | 0.00 | 0.00 | 0.00 | 76 | 1017.9 |
| 20260507194458 | 81 | 66 | 9.6 | 11.3 | 0.00 | 0.00 | 0.00 | 76 | 1017.6 |
| 20260507193954 | 82 | 65 | 10.4 | 14.8 | 0.00 | 0.00 | 0.00 | 76 | 1018.0 |
| 20260507193452 | 81 | 54 | 12.2 | 16.5 | 0.00 | 0.00 | 0.00 | 76 | 1017.9 |
| 20260507192948 | 81 | 70 | 15.6 | 18.2 | 0.00 | 0.00 | 0.00 | 75 | 1018.1 |
| 20260507192444 | 82 | 59 | 10.4 | 16.5 | 0.00 | 0.00 | 0.00 | 75 | 1017.8 |
| 20260507191942 | 82 | 53 | 13.9 | 18.2 | 0.00 | 0.00 | 0.00 | 74 | 1017.7 |
| 20260507191437 | 82 | 52 | 11.3 | 20.0 | 0.00 | 0.00 | 0.00 | 71 | 1017.9 |
| 20260507190934 | 82 | 114 | 8.7 | 11.3 | 0.00 | 0.00 | 0.00 | 72 | 1018.1 |
| 20260507190432 | 81 | 50 | 11.3 | 16.5 | 0.00 | 0.00 | 0.00 | 74 | 1018.1 |
| 20260507185931 | 83 | 79 | 9.6 | 14.8 | 0.00 | 0.00 | 0.00 | 73 | 1017.9 |
| 20260507185427 | 83 | 42 | 7.0 | 12.2 | 0.00 | 0.00 | 0.00 | 73 | 1017.7 |
| 20260507184924 | 82 | 54 | 7.0 | 12.2 | 0.00 | 0.00 | 0.00 | 73 | 1017.9 |
| 20260507184422 | 82 | 58 | 7.0 | 14.8 | 0.00 | 0.00 | 0.00 | 73 | 1018.1 |
| 20260507183919 | 82 | 47 | 10.4 | 13.0 | 0.00 | 0.00 | 0.00 | 73 | 1018.0 |
| 20260507183416 | 81 | 44 | 13.0 | 19.1 | 0.00 | 0.00 | 0.00 | 74 | 1018.3 |
| 20260507182914 | 82 | 46 | 9.6 | 11.3 | 0.00 | 0.00 | 0.00 | 75 | 1018.3 |
| 20260507182409 | 82 | 68 | 12.2 | 18.2 | 0.00 | 0.00 | 0.00 | 76 | 1018.0 |
| 20260507181906 | 82 | 30 | 12.2 | 13.9 | 0.00 | 0.00 | 0.00 | 75 | 1018.1 |
| 20260507181402 | 82 | 22 | 12.2 | 13.9 | 0.00 | 0.00 | 0.00 | 75 | 1018.3 |
| 20260507180859 | 82 | 22 | 11.3 | 15.6 | 0.00 | 0.00 | 0.00 | 75 | 1018.1 |
| 20260507180355 | 82 | 31 | 10.4 | 19.1 | 0.00 | 0.00 | 0.00 | 72 | 1018.4 |
| 20260507175851 | 81 | 27 | 13.0 | 16.5 | 0.00 | 0.00 | 0.00 | 75 | 1018.4 |
| 20260507175348 | 81 | 44 | 13.9 | 18.2 | 0.00 | 0.00 | 0.00 | 73 | 1018.6 |
| 20260507174846 | 81 | 45 | 13.0 | 18.2 | 0.00 | 0.00 | 0.00 | 75 | 1018.6 |
| 20260507174343 | 82 | 41 | 9.6 | 15.6 | 0.00 | 0.00 | 0.00 | 74 | 1018.6 |
| 20260507173840 | 82 | 62 | 8.7 | 15.6 | 0.00 | 0.00 | 0.00 | 72 | 1018.6 |
| 20260507173337 | 82 | 70 | 10.4 | 14.8 | 0.00 | 0.00 | 0.00 | 72 | 1018.7 |
| 20260507172833 | 82 | 36 | 7.8 | 14.8 | 0.00 | 0.00 | 0.00 | 73 | 1018.6 |
| 20260507172331 | 82 | 66 | 11.3 | 13.9 | 0.00 | 0.00 | 0.00 | 71 | 1019.0 |
| 20260507171826 | 82 | 40 | 15.6 | 20.0 | 0.00 | 0.00 | 0.00 | 71 | 1018.9 |
| 20260507171323 | 82 | 63 | 11.3 | 15.6 | 0.00 | 0.00 | 0.00 | 70 | 1018.9 |
| 20260507170820 | 82 | 46 | 13.9 | 16.5 | 0.00 | 0.00 | 0.00 | 70 | 1019.0 |
| 20260507170317 | 82 | 68 | 11.3 | 16.5 | 0.00 | 0.00 | 0.00 | 71 | 1019.1 |
| 20260507165813 | 82 | 30 | 13.0 | 15.6 | 0.00 | 0.00 | 0.00 | 73 | 1019.1 |
| 20260507165309 | 82 | 68 | 11.3 | 15.6 | 0.00 | 0.00 | 0.00 | 72 | 1019.2 |
| 20260507164805 | 82 | 35 | 12.2 | 19.1 | 0.00 | 0.00 | 0.00 | 74 | 1019.4 |
| 20260507164302 | 82 | 72 | 9.6 | 12.2 | 0.00 | 0.00 | 0.00 | 73 | 1019.5 |
| 20260507163759 | 81 | 49 | 11.3 | 16.5 | 0.00 | 0.00 | 0.00 | 74 | 1019.4 |
| 20260507163257 | 82 | 30 | 10.4 | 13.0 | 0.00 | 0.00 | 0.00 | 76 | 1019.5 |
| 20260507162753 | 82 | 46 | 9.6 | 13.0 | 0.00 | 0.00 | 0.00 | 75 | 1019.6 |
| 20260507162249 | 82 | 25 | 7.0 | 13.0 | 0.00 | 0.00 | 0.00 | 76 | 1019.2 |
| 20260507161746 | 81 | 49 | 13.9 | 16.5 | 0.00 | 0.00 | 0.00 | 77 | 1019.8 |
| 20260507161243 | 82 | 45 | 13.9 | 15.6 | 0.00 | 0.00 | 0.00 | 76 | 1019.9 |
| 20260507160738 | 81 | 12 | 9.6 | 19.1 | 0.00 | 0.00 | 0.00 | 77 | 1019.7 |
| 20260507160235 | 82 | 41 | 9.6 | 15.6 | 0.00 | 0.00 | 0.00 | 77 | 1019.7 |
| 20260507155731 | 82 | 30 | 9.6 | 13.0 | 0.00 | 0.00 | 0.00 | 76 | 1019.7 |
| 20260507155227 | 82 | 34 | 9.6 | 14.8 | 0.00 | 0.00 | 0.00 | 77 | 1019.8 |
| 20260507154724 | 82 | 63 | 8.7 | 12.2 | 0.00 | 0.00 | 0.00 | 74 | 1019.8 |
| 20260507154221 | 82 | 44 | 14.8 | 16.5 | 0.00 | 0.00 | 0.00 | 79 | 1019.9 |
| 20260507153718 | 83 | 24 | 9.6 | 13.0 | 0.00 | 0.00 | 0.00 | 75 | 1019.7 |
| 20260507153214 | 82 | 53 | 7.8 | 14.8 | 0.00 | 0.00 | 0.00 | 75 | 1020.0 |
| 20260507152711 | 82 | 42 | 6.1 | 11.3 | 0.00 | 0.00 | 0.00 | 74 | 1020.0 |
| 20260507152207 | 82 | 43 | 13.9 | 16.5 | 0.00 | 0.00 | 0.00 | 73 | 1019.8 |
| 20260507151703 | 82 | 43 | 11.3 | 14.8 | 0.00 | 0.00 | 0.00 | 70 | 1019.9 |
| 20260507151200 | 82 | 38 | 10.4 | 13.0 | 0.00 | 0.00 | 0.00 | 70 | 1019.8 |
| 20260507150657 | 82 | 37 | 13.9 | 16.5 | 0.00 | 0.00 | 0.00 | 71 | 1020.0 |
| 20260507150154 | 82 | 31 | 12.2 | 13.0 | 0.00 | 0.00 | 0.00 | 72 | 1019.9 |
| 20260507145649 | 83 | 56 | 6.1 | 9.6 | 0.00 | 0.00 | 0.00 | 72 | 1019.9 |
| 20260507145147 | 82 | 34 | 5.2 | 12.2 | 0.00 | 0.00 | 0.00 | 73 | 1019.9 |
| 20260507144643 | 83 | 59 | 11.3 | 13.0 | 0.00 | 0.00 | 0.00 | 73 | 1019.9 |
| 20260507144141 | 82 | 38 | 7.0 | 12.2 | 0.00 | 0.00 | 0.00 | 75 | 1019.9 |
| 20260507143637 | 82 | 61 | 9.6 | 13.9 | 0.00 | 0.00 | 0.00 | 74 | 1019.9 |
| 20260507143135 | 82 | 33 | 8.7 | 11.3 | 0.00 | 0.00 | 0.00 | 73 | 1020.0 |
| 20260507142630 | 82 | 29 | 4.3 | 6.1 | 0.00 | 0.00 | 0.00 | 74 | 1019.8 |
| 20260507142127 | 82 | 53 | 7.0 | 13.0 | 0.00 | 0.00 | 0.00 | 73 | 1020.1 |
| 20260507141623 | 82 | 49 | 6.1 | 9.6 | 0.00 | 0.00 | 0.00 | 75 | 1020.1 |
| 20260507141120 | 82 | 38 | 5.2 | 11.3 | 0.00 | 0.00 | 0.00 | 73 | 1020.1 |
| 20260507140617 | 82 | 33 | 7.8 | 9.6 | 0.00 | 0.00 | 0.00 | 73 | 1020.0 |
| 20260507140114 | 81 | 33 | 7.0 | 8.7 | 0.00 | 0.00 | 0.00 | 73 | 1020.1 |
| 20260507135611 | 81 | 67 | 5.2 | 7.0 | 0.00 | 0.00 | 0.00 | 75 | 1020.1 |
| 20260507135109 | 81 | 60 | 6.1 | 8.7 | 0.00 | 0.00 | 0.00 | 75 | 1020.2 |
| 20260507134605 | 81 | 83 | 4.3 | 7.0 | 0.00 | 0.00 | 0.00 | 74 | 1020.3 |
| 20260507134101 | 80 | 46 | 5.2 | 8.7 | 0.00 | 0.00 | 0.00 | 74 | 1020.0 |
| 20260507133557 | 81 | 41 | 9.6 | 9.6 | 0.00 | 0.00 | 0.00 | 72 | 1020.0 |
| 20260507133055 | 80 | 44 | 7.0 | 7.8 | 0.00 | 0.00 | 0.00 | 72 | 1020.2 |
| 20260507132551 | 80 | 21 | 8.7 | 11.3 | 0.00 | 0.00 | 0.00 | 73 | 1020.2 |
| 20260507132048 | 81 | 46 | 6.1 | 8.7 | 0.00 | 0.00 | 0.00 | 70 | 1020.2 |
| 20260507131545 | 81 | 28 | 8.7 | 8.7 | 0.00 | 0.00 | 0.00 | 71 | 1020.1 |
| 20260507131043 | 80 | 44 | 7.8 | 8.7 | 0.00 | 0.00 | 0.00 | 71 | 1020.2 |
| 20260507130539 | 80 | 33 | 3.5 | 7.0 | 0.00 | 0.00 | 0.00 | 73 | 1020.2 |
| 20260507130037 | 79 | 42 | 3.5 | 7.8 | 0.00 | 0.00 | 0.00 | 73 | 1020.2 |
| 20260507125536 | 80 | 22 | 7.8 | 9.6 | 0.00 | 0.00 | 0.00 | 73 | 1020.0 |
| 20260507125032 | 81 | 17 | 7.8 | 8.7 | 0.00 | 0.00 | 0.00 | 70 | 1020.0 |
| 20260507124528 | 81 | 50 | 5.2 | 7.8 | 0.00 | 0.00 | 0.00 | 66 | 1020.0 |
| 20260507124026 | 81 | 29 | 7.0 | 7.8 | 0.00 | 0.00 | 0.00 | 66 | 1019.7 |
| 20260507123525 | 81 | 40 | 3.5 | 6.1 | 0.00 | 0.00 | 0.00 | 67 | 1019.9 |
| 20260507123021 | 81 | 32 | 2.6 | 5.2 | 0.00 | 0.00 | 0.00 | 70 | 1019.9 |
| 20260507122516 | 81 | 123 | 1.7 | 5.2 | 0.00 | 0.00 | 0.00 | 65 | 1019.8 |
| 20260507122012 | 81 | 107 | 5.2 | 6.1 | 0.00 | 0.00 | 0.00 | 66 | 1019.9 |
| 20260507121508 | 80 | 74 | 2.6 | 7.0 | 0.00 | 0.00 | 0.00 | 66 | 1019.8 |
| 20260507121004 | 81 | 77 | 5.2 | 6.1 | 0.00 | 0.00 | 0.00 | 67 | 1019.3 |
| 20260507120500 | 82 | 100 | 3.5 | 3.5 | 0.00 | 0.00 | 0.00 | 63 | 1019.5 |
| 20260507115957 | 81 | 132 | 1.7 | 1.7 | 0.00 | 0.00 | 0.00 | 65 | 1019.2 |
| 20260507115454 | 80 | 129 | 4.3 | 5.2 | 0.00 | 0.00 | 0.00 | 66 | 1019.1 |
| 20260507114949 | 80 | 134 | 0.9 | 3.5 | 0.00 | 0.00 | 0.00 | 67 | 1019.3 |
| 20260507114446 | 80 | 139 | 4.3 | 5.2 | 0.00 | 0.00 | 0.00 | 67 | 1019.1 |
| 20260507113943 | 80 | 136 | 0.0 | 2.6 | 0.00 | 0.00 | 0.00 | 69 | 1019.0 |
| 20260507113440 | 80 | 141 | 0.9 | 1.7 | 0.00 | 0.00 | 0.00 | 68 | 1018.8 |
| 20260507112937 | 79 | 146 | 1.7 | 3.5 | 0.00 | 0.00 | 0.00 | 71 | 1018.9 |
| 20260507112435 | 78 | 130 | 1.7 | 2.6 | 0.00 | 0.00 | 0.00 | 71 | 1018.9 |
| 20260507111931 | 78 | 159 | 0.9 | 2.6 | 0.00 | 0.00 | 0.00 | 72 | 1018.7 |
| 20260507111429 | 77 | 180 | 0.9 | 1.7 | 0.00 | 0.00 | 0.00 | 73 | 1018.8 |
| 20260507110925 | 76 | 178 | 1.7 | 2.6 | 0.00 | 0.00 | 0.00 | 74 | 1018.9 |
| 20260507110421 | 76 | 173 | 1.7 | 1.7 | 0.00 | 0.00 | 0.00 | 73 | 1018.9 |
| 20260507105918 | 76 | 158 | 0.9 | 2.6 | 0.00 | 0.00 | 0.00 | 73 | 1019.1 |
| 20260507105415 | 75 | 178 | 1.7 | 3.5 | 0.00 | 0.00 | 0.00 | 76 | 1019.0 |
| 20260507104912 | 75 | 168 | 1.7 | 2.6 | 0.00 | 0.00 | 0.00 | 76 | 1018.8 |
| 20260507104408 | 75 | 176 | 2.6 | 3.5 | 0.00 | 0.00 | 0.00 | 76 | 1018.9 |
| 20260507103904 | 75 | 178 | 1.7 | 2.6 | 0.00 | 0.00 | 0.00 | 75 | 1019.0 |
| 20260507103401 | 74 | 182 | 2.6 | 2.6 | 0.00 | 0.00 | 0.00 | 77 | 1018.8 |
| 20260507102857 | 72 | 179 | 3.5 | 3.5 | 0.00 | 0.00 | 0.00 | 82 | 1019.0 |
| 20260507102354 | 73 | 193 | 3.5 | 3.5 | 0.00 | 0.00 | 0.00 | 81 | 1018.5 |
| 20260507101850 | 75 | 180 | 1.7 | 1.7 | 0.00 | 0.00 | 0.00 | 76 | 1018.6 |
| 20260507101345 | 74 | 132 | 0.0 | 0.0 | 0.00 | 0.00 | 0.00 | 75 | 1018.7 |
| 20260507100842 | 75 | 132 | 0.0 | 0.0 | 0.00 | 0.00 | 0.00 | 76 | 1018.8 |
| 20260507100341 | 76 | 125 | 0.9 | 1.7 | 0.00 | 0.00 | 0.00 | 73 | 1018.6 |
| 20260507095838 | 75 | 137 | 2.6 | 3.5 | 0.00 | 0.00 | 0.00 | 74 | 1018.6 |
| 20260507095335 | 76 | 137 | 3.5 | 3.5 | 0.00 | 0.00 | 0.00 | 73 | 1018.6 |
| 20260507094832 | 75 | 140 | 3.5 | 3.5 | 0.00 | 0.00 | 0.00 | 73 | 1018.6 |
| 20260507094328 | 73 | 133 | 2.6 | 2.6 | 0.00 | 0.00 | 0.00 | 77 | 1018.3 |
| 20260507093825 | 73 | 160 | 0.0 | 0.9 | 0.00 | 0.00 | 0.00 | 79 | 1018.3 |
| 20260507093324 | 73 | 172 | 1.7 | 1.7 | 0.00 | 0.00 | 0.00 | 79 | 1018.0 |
| 20260507092821 | 74 | 148 | 2.6 | 2.6 | 0.00 | 0.00 | 0.00 | 78 | 1018.5 |
| 20260507092318 | 74 | 139 | 1.7 | 2.6 | 0.00 | 0.00 | 0.00 | 77 | 1018.0 |
| 20260507091814 | 73 | 146 | 0.9 | 1.7 | 0.00 | 0.00 | 0.00 | 79 | 1018.2 |
| 20260507091311 | 73 | 172 | 0.9 | 1.7 | 0.00 | 0.00 | 0.00 | 80 | 1018.4 |
| 20260507090811 | 73 | 175 | 1.7 | 1.7 | 0.00 | 0.00 | 0.00 | 80 | 1018.1 |
| 20260507090308 | 73 | 172 | 0.9 | 1.7 | 0.00 | 0.00 | 0.00 | 80 | 1018.2 |
| 20260507085805 | 73 | 170 | 1.7 | 2.6 | 0.00 | 0.00 | 0.00 | 81 | 1018.3 |
| 20260507085302 | 73 | 176 | 2.6 | 3.5 | 0.00 | 0.00 | 0.00 | 82 | 1018.5 |
| 20260507084759 | 73 | 168 | 1.7 | 2.6 | 0.00 | 0.00 | 0.00 | 79 | 1018.3 |
| 20260507084255 | 74 | 163 | 0.9 | 0.9 | 0.00 | 0.00 | 0.00 | 75 | 1018.3 |
| 20260507083754 | 74 | 172 | 1.7 | 1.7 | 0.00 | 0.00 | 0.00 | 77 | 1018.5 |
| 20260507083249 | 74 | 154 | 0.9 | 1.7 | 0.00 | 0.00 | 0.00 | 79 | 1018.6 |
| 20260507082745 | 74 | 170 | 1.7 | 3.5 | 0.00 | 0.00 | 0.00 | 79 | 1018.6 |
| 20260507082242 | 74 | 178 | 1.7 | 2.6 | 0.00 | 0.00 | 0.00 | 79 | 1018.4 |
| 20260507081738 | 73 | 151 | 0.9 | 1.7 | 0.00 | 0.00 | 0.00 | 79 | 1018.3 |
| 20260507081235 | 73 | 175 | 1.7 | 1.7 | 0.00 | 0.00 | 0.00 | 82 | 1018.3 |
| 20260507080731 | 74 | 177 | 1.7 | 2.6 | 0.00 | 0.00 | 0.00 | 81 | 1018.7 |
| 20260507080227 | 73 | 178 | 2.6 | 2.6 | 0.00 | 0.00 | 0.00 | 80 | 1018.5 |
| 20260507075723 | 74 | 176 | 1.7 | 1.7 | 0.00 | 0.00 | 0.00 | 79 | 1018.3 |
| 20260507075220 | 74 | 162 | 0.9 | 2.6 | 0.00 | 0.00 | 0.00 | 77 | 1018.3 |
| 20260507074716 | 75 | 147 | 1.7 | 3.5 | 0.00 | 0.00 | 0.00 | 76 | 1018.4 |
| 20260507074214 | 74 | 141 | 5.2 | 5.2 | 0.00 | 0.00 | 0.00 | 76 | 1018.5 |
| 20260507073710 | 74 | 145 | 3.5 | 3.5 | 0.00 | 0.00 | 0.00 | 78 | 1018.4 |
| 20260507073201 | 75 | 134 | 3.5 | 3.5 | 0.00 | 0.00 | 0.00 | 77 | 1018.4 |
| 20260507072659 | 75 | 139 | 3.5 | 5.2 | 0.00 | 0.00 | 0.00 | 77 | 1018.5 |
| 20260507072156 | 74 | 136 | 1.7 | 1.7 | 0.00 | 0.00 | 0.00 | 78 | 1018.5 |
| 20260507071654 | 75 | 121 | 2.6 | 3.5 | 0.00 | 0.00 | 0.00 | 78 | 1018.6 |
| 20260507071149 | 75 | 128 | 3.5 | 3.5 | 0.00 | 0.00 | 0.00 | 77 | 1018.6 |
| 20260507070647 | 76 | 129 | 2.6 | 3.5 | 0.00 | 0.00 | 0.00 | 76 | 1018.7 |
| 20260507070143 | 76 | 118 | 3.5 | 3.5 | 0.00 | 0.00 | 0.00 | 75 | 1018.7 |
| 20260507065639 | 76 | 122 | 4.3 | 5.2 | 0.00 | 0.00 | 0.00 | 75 | 1018.7 |
| 20260507065136 | 76 | 135 | 2.6 | 2.6 | 0.00 | 0.00 | 0.00 | 75 | 1018.8 |
| 20260507064634 | 76 | 140 | 2.6 | 2.6 | 0.00 | 0.00 | 0.00 | 76 | 1018.8 |
| 20260507064133 | 76 | 156 | 0.9 | 2.6 | 0.00 | 0.00 | 0.00 | 78 | 1018.9 |
| 20260507063630 | 75 | 140 | 0.9 | 1.7 | 0.00 | 0.00 | 0.00 | 79 | 1018.9 |
| 20260507063127 | 76 | 165 | 0.9 | 0.9 | 0.00 | 0.00 | 0.00 | 81 | 1019.2 |
| 20260507062623 | 75 | 130 | 1.7 | 1.7 | 0.00 | 0.00 | 0.00 | 78 | 1019.3 |
| 20260507062121 | 75 | 142 | 0.0 | 0.0 | 0.00 | 0.00 | 0.00 | 81 | 1019.2 |
| 20260507061619 | 75 | 143 | 0.0 | 0.0 | 0.00 | 0.00 | 0.00 | 82 | 1019.1 |
| 20260507061117 | 75 | 122 | 0.0 | 0.9 | 0.00 | 0.00 | 0.00 | 82 | 1019.3 |
| 20260507060615 | 75 | 162 | 0.9 | 0.9 | 0.00 | 0.00 | 0.00 | 81 | 1019.4 |
| 20260507060111 | 75 | 174 | 1.7 | 1.7 | 0.00 | 0.00 | 0.00 | 84 | 1019.3 |
| 20260507055606 | 75 | 167 | 0.0 | 1.7 | 0.00 | 0.00 | 0.00 | 84 | 1019.7 |
| 20260507055102 | 76 | 165 | 0.0 | 0.9 | 0.00 | 0.00 | 0.00 | 81 | 1019.5 |
| 20260507054558 | 76 | 170 | 0.0 | 0.0 | 0.00 | 0.00 | 0.00 | 80 | 1019.6 |
| 20260507054056 | 77 | 146 | 1.7 | 1.7 | 0.00 | 0.00 | 0.00 | 77 | 1019.7 |
| 20260507053553 | 77 | 140 | 3.5 | 3.5 | 0.00 | 0.00 | 0.00 | 75 | 1019.9 |
| 20260507053052 | 77 | 115 | 3.5 | 5.2 | 0.00 | 0.00 | 0.00 | 76 | 1019.6 |
| 20260507052549 | 76 | 104 | 3.5 | 3.5 | 0.00 | 0.00 | 0.00 | 80 | 1019.7 |
| 20260507052046 | 76 | 116 | 4.3 | 5.2 | 0.00 | 0.00 | 0.00 | 84 | 1019.7 |
| 20260507051543 | 76 | 120 | 4.3 | 6.1 | 0.00 | 0.00 | 0.00 | 84 | 1019.8 |
| 20260507051040 | 76 | 124 | 3.5 | 5.2 | 0.00 | 0.00 | 0.00 | 85 | 1020.0 |
| 20260507050536 | 76 | 112 | 4.3 | 5.2 | 0.00 | 0.00 | 0.00 | 86 | 1020.0 |
| 20260507050033 | 76 | 125 | 4.3 | 5.2 | 0.00 | 0.00 | 0.00 | 87 | 1020.3 |
| 20260507045530 | 76 | 105 | 3.5 | 5.2 | 0.00 | 0.00 | 0.00 | 86 | 1020.1 |
| 20260507045027 | 76 | 134 | 3.5 | 5.2 | 0.00 | 0.00 | 0.00 | 86 | 1020.6 |
| 20260507044524 | 76 | 110 | 5.2 | 6.1 | 0.00 | 0.00 | 0.00 | 85 | 1020.3 |
| 20260507044021 | 76 | 107 | 3.5 | 5.2 | 0.00 | 0.00 | 0.00 | 86 | 1020.4 |
| 20260507043516 | 77 | 119 | 3.5 | 6.1 | 0.00 | 0.00 | 0.00 | 85 | 1020.4 |
| 20260507043014 | 77 | 141 | 3.5 | 6.1 | 0.00 | 0.00 | 0.00 | 85 | 1020.4 |
| 20260507042510 | 77 | 172 | 1.7 | 6.1 | 0.00 | 0.00 | 0.00 | 86 | 1020.1 |
| 20260507042005 | 77 | 166 | 2.6 | 5.2 | 0.00 | 0.00 | 0.00 | 86 | 1020.3 |
| 20260507041503 | 77 | 182 | 4.3 | 6.1 | 0.00 | 0.00 | 0.00 | 86 | 1020.3 |
| 20260507040959 | 77 | 176 | 3.5 | 6.1 | 0.00 | 0.00 | 0.00 | 86 | 1020.4 |
| 20260507040455 | 77 | 164 | 3.5 | 6.1 | 0.00 | 0.00 | 0.00 | 87 | 1020.4 |
| 20260507035951 | 77 | 166 | 1.7 | 6.1 | 0.00 | 0.00 | 0.00 | 88 | 1020.5 |
| 20260507035448 | 77 | 146 | 3.5 | 6.1 | 0.00 | 0.00 | 0.00 | 88 | 1020.5 |
| 20260507034944 | 77 | 167 | 2.6 | 6.1 | 0.00 | 0.00 | 0.00 | 88 | 1020.4 |
| 20260507034441 | 77 | 184 | 3.5 | 7.0 | 0.00 | 0.00 | 0.00 | 88 | 1020.7 |
| 20260507033940 | 77 | 151 | 2.6 | 5.2 | 0.00 | 0.00 | 0.00 | 89 | 1020.5 |
| 20260507033437 | 77 | 175 | 4.3 | 7.0 | 0.00 | 0.00 | 0.00 | 89 | 1020.5 |
| 20260507032934 | 78 | 180 | 4.3 | 7.0 | 0.00 | 0.00 | 0.00 | 90 | 1020.7 |
| 20260507032431 | 78 | 164 | 3.5 | 7.0 | 0.00 | 0.00 | 0.00 | 90 | 1020.4 |
| 20260507031927 | 78 | 183 | 4.3 | 7.0 | 0.00 | 0.00 | 0.00 | 89 | 1020.6 |
| 20260507031426 | 78 | 186 | 4.3 | 7.0 | 0.00 | 0.00 | 0.00 | 90 | 1020.8 |
| 20260507030920 | 78 | 166 | 2.6 | 5.2 | 0.00 | 0.00 | 0.00 | 89 | 1020.8 |
| 20260507030418 | 78 | 177 | 3.5 | 6.1 | 0.00 | 0.00 | 0.00 | 89 | 1020.4 |
| 20260507025914 | 78 | 173 | 4.3 | 6.1 | 0.00 | 0.00 | 0.00 | 89 | 1020.8 |
| 20260507025412 | 79 | 183 | 3.5 | 6.1 | 0.00 | 0.00 | 0.00 | 89 | 1020.7 |
| 20260507024910 | 79 | 178 | 2.6 | 2.6 | 0.00 | 0.00 | 0.00 | 88 | 1020.6 |
| 20260507024407 | 79 | 212 | 2.6 | 2.6 | 0.00 | 0.00 | 0.00 | 88 | 1020.5 |
| 20260507023902 | 79 | 206 | 1.7 | 1.7 | 0.00 | 0.00 | 0.00 | 88 | 1020.7 |
| 20260507023359 | 79 | 234 | 0.9 | 1.7 | 0.00 | 0.00 | 0.00 | 88 | 1020.8 |
| 20260507022858 | 79 | 289 | 1.7 | 1.7 | 0.00 | 0.00 | 0.00 | 88 | 1020.5 |
| 20260507022354 | 79 | 280 | 1.7 | 2.6 | 0.00 | 0.00 | 0.00 | 88 | 1020.5 |
| 20260507021849 | 79 | 296 | 2.6 | 3.5 | 0.00 | 0.00 | 0.00 | 88 | 1020.7 |
| 20260507021344 | 79 | 325 | 3.5 | 5.2 | 0.00 | 0.00 | 0.00 | 87 | 1020.7 |
| 20260507020843 | 79 | 340 | 3.5 | 3.5 | 0.00 | 0.00 | 0.00 | 87 | 1020.3 |
| 20260507020339 | 79 | 12 | 1.7 | 3.5 | 0.00 | 0.00 | 0.00 | 87 | 1020.5 |
| 20260507015836 | 80 | 335 | 0.9 | 5.2 | 0.00 | 0.00 | 0.00 | 87 | 1020.4 |
| 20260507015334 | 79 | 330 | 4.3 | 6.1 | 0.00 | 0.00 | 0.00 | 87 | 1020.2 |
| 20260507014831 | 79 | 356 | 3.5 | 7.0 | 0.00 | 0.00 | 0.00 | 87 | 1020.4 |
| 20260507014327 | 79 | 320 | 3.5 | 6.1 | 0.00 | 0.00 | 0.00 | 87 | 1020.3 |
| 20260507013823 | 79 | 330 | 2.6 | 3.5 | 0.00 | 0.00 | 0.00 | 87 | 1020.3 |
| 20260507013321 | 79 | 1 | 1.7 | 2.6 | 0.00 | 0.00 | 0.00 | 87 | 1020.3 |
| 20260507012818 | 79 | 342 | 2.6 | 3.5 | 0.00 | 0.00 | 0.00 | 87 | 1020.2 |
| 20260507012314 | 79 | 335 | 4.3 | 7.0 | 0.00 | 0.00 | 0.00 | 86 | 1020.2 |
| 20260507011811 | 79 | 349 | 6.1 | 7.0 | 0.00 | 0.00 | 0.00 | 86 | 1020.2 |
| 20260507011308 | 79 | 344 | 4.3 | 6.1 | 0.00 | 0.00 | 0.00 | 86 | 1020.1 |
| 20260507010808 | 79 | 340 | 3.5 | 7.0 | 0.00 | 0.00 | 0.00 | 86 | 1020.0 |
| 20260507010304 | 79 | 347 | 4.3 | 7.0 | 0.00 | 0.00 | 0.00 | 86 | 1020.1 |
| 20260507005801 | 80 | 357 | 3.5 | 3.5 | 0.00 | 0.00 | 0.00 | 86 | 1020.0 |
| 20260507005257 | 80 | 339 | 6.1 | 7.0 | 0.00 | 0.00 | 0.00 | 86 | 1020.1 |
| 20260507004754 | 80 | 359 | 5.2 | 7.0 | 0.00 | 0.00 | 0.00 | 85 | 1020.2 |
| 20260507004252 | 80 | 330 | 4.3 | 7.0 | 0.00 | 0.00 | 0.00 | 85 | 1020.0 |
| 20260507003748 | 80 | 345 | 3.5 | 6.1 | 0.00 | 0.00 | 0.00 | 85 | 1020.2 |
| 20260507003243 | 80 | 349 | 3.5 | 7.0 | 0.00 | 0.00 | 0.00 | 85 | 1020.0 |
| 20260507002740 | 80 | 327 | 6.1 | 7.0 | 0.00 | 0.00 | 0.00 | 84 | 1020.2 |
| 20260507002236 | 80 | 326 | 6.1 | 7.8 | 0.00 | 0.00 | 0.00 | 84 | 1019.8 |
| 20260507001733 | 80 | 336 | 7.0 | 7.8 | 0.00 | 0.00 | 0.00 | 84 | 1019.8 |
| 20260507001230 | 80 | 342 | 4.3 | 7.8 | 0.00 | 0.00 | 0.00 | 83 | 1019.7 |
| 20260507000727 | 80 | 358 | 3.5 | 7.8 | 0.00 | 0.00 | 0.00 | 83 | 1020.0 |
| 20260507000222 | 80 | 338 | 7.0 | 7.8 | 0.00 | 0.00 | 0.00 | 82 | 1019.9 |
| 20260506235719 | 80 | 15 | 3.5 | 7.0 | 0.00 | 0.00 | 0.00 | 82 | 1019.9 |
| 20260506235214 | 80 | 338 | 4.3 | 5.2 | 0.00 | 0.00 | 0.00 | 83 | 1019.7 |
| 20260506234712 | 80 | 327 | 4.3 | 7.0 | 0.00 | 0.00 | 0.00 | 82 | 1019.5 |
| 20260506234209 | 80 | 347 | 3.5 | 7.0 | 0.00 | 0.00 | 0.00 | 82 | 1019.8 |
| 20260506233707 | 80 | 3 | 3.5 | 5.2 | 0.00 | 0.00 | 0.00 | 82 | 1019.8 |
| 20260506233203 | 80 | 336 | 6.1 | 7.0 | 0.00 | 0.00 | 0.00 | 81 | 1019.5 |
| 20260506232659 | 80 | 2 | 7.8 | 7.8 | 0.00 | 0.00 | 0.00 | 80 | 1019.5 |
| 20260506232154 | 80 | 22 | 3.5 | 7.0 | 0.00 | 0.00 | 0.00 | 80 | 1019.5 |
| 20260506231652 | 80 | 10 | 6.1 | 7.8 | 0.00 | 0.00 | 0.00 | 80 | 1019.7 |
| 20260506231150 | 80 | 349 | 5.2 | 7.0 | 0.00 | 0.00 | 0.00 | 79 | 1019.6 |
| 20260506230647 | 83 | 312 | 7.8 | 8.7 | 0.00 | 0.00 | 0.00 | 77 | 1019.3 |
| 20260506230143 | 0 | 137 | 7.0 | 7.8 | 0.00 | 0.00 | 0.00 | 1019.4 | |
| 20260506225640 | 0 | 13 | 3.5 | 3.5 | 0.00 | 0.00 | 0.00 | 1019.0 | |
| 20260506225137 | 0 | 331 | 2.6 | 5.2 | 0.00 | 0.00 | 0.00 | 1019.2 | |
| 20260506224633 | 0 | 21 | 5.2 | 7.0 | 0.00 | 0.00 | 0.00 | 1019.4 | |
| 20260506224130 | 0 | 17 | 6.1 | 7.0 | 0.00 | 0.00 | 0.00 | 1019.1 | |
| 20260506223626 | 0 | 16 | 4.3 | 5.2 | 0.00 | 0.00 | 0.00 | 1019.3 | |
| 20260506223122 | 0 | 22 | 5.2 | 6.1 | 0.00 | 0.00 | 0.00 | 1018.8 | |
| 20260506222620 | 0 | 37 | 3.5 | 7.0 | 0.00 | 0.00 | 0.00 | 1019.0 | |
| 20260506222116 | 0 | 19 | 5.2 | 7.8 | 0.00 | 0.00 | 0.00 | 1018.8 | |
| 20260506221614 | 0 | 24 | 5.2 | 6.1 | 0.00 | 0.00 | 0.00 | 1018.9 | |
| 20260506221111 | 0 | 15 | 3.5 | 6.1 | 0.00 | 0.00 | 0.00 | 1018.7 | |
| 20260506220608 | 0 | 21 | 5.2 | 7.0 | 0.00 | 0.00 | 0.00 | 1018.7 | |
| 20260506215600 | 0 | 26 | 4.3 | 6.1 | 0.00 | 0.00 | 0.00 | 1018.7 | |
| 20260506215055 | 0 | 36 | 2.6 | 7.0 | 0.00 | 0.00 | 0.00 | 1018.7 | |
| 20260506214552 | 0 | 13 | 6.1 | 7.0 | 0.00 | 0.00 | 0.00 | 1018.8 | |
| 20260506214050 | 0 | 30 | 4.3 | 7.0 | 0.00 | 0.00 | 0.00 | 1018.7 | |
| 20260506213548 | 0 | 15 | 6.1 | 7.8 | 0.00 | 0.00 | 0.00 | 1018.6 | |
| 20260506213045 | 0 | 12 | 5.2 | 7.0 | 0.00 | 0.00 | 0.00 | 1018.7 | |
| 20260506212541 | 0 | 17 | 4.3 | 7.0 | 0.00 | 0.00 | 0.00 | 1018.4 | |
| 20260506212036 | 0 | 24 | 6.1 | 7.0 | 0.00 | 0.00 | 0.00 | 1018.4 | |
| 20260506211532 | 0 | 28 | 5.2 | 7.0 | 0.00 | 0.00 | 0.00 | 1018.3 | |
| 20260506211030 | 0 | 22 | 5.2 | 7.0 | 0.00 | 0.00 | 0.00 | 1018.5 | |
| 20260506210526 | 0 | 38 | 2.6 | 5.2 | 0.00 | 0.00 | 0.00 | 1018.6 | |
| 20260506210023 | 0 | 23 | 4.3 | 6.1 | 0.00 | 0.00 | 0.00 | 1018.5 | |
| 20260506205520 | 0 | 47 | 5.2 | 7.0 | 0.00 | 0.00 | 0.00 | 1018.3 |